Regional Weather Roundup
Issued by NWS

Home | Current Version | Previous Version | Text Only | Print | Product List | Glossary Off
Versions: 1 2 3 4 5 6 7 8 9 10 11 12 13 14 15 16 17 18 19 20 21 22 23 24 25 26 27 28 29 30 31 32 33 34 35 36 37 38 39 40 41 42 43 44 45 46 47 48 49 50

000
ASUS43 KDMX 280403
RWRIA

WEATHER ROUNDUP FOR IOWA
NATIONAL WEATHER SERVICE DES MOINES IA
1100 PM CDT TUE SEP 27 2016

NOTE: "FAIR" INDICATES FEW OR NO CLOUDS BELOW 12,000 FEET WITH NO
SIGNIFICANT WEATHER AND/OR OBSTRUCTIONS TO VISIBILITY.

* - THESE STATIONS ARE NOT NWS STATIONS...THUS NOT UNDER NWS
QUALITY CONTROL.  THEY ALSO DO NOT REPORT WEATHER SUCH
AS PRECIPITATION OR FOG.

IAZ001>003-012>014-020>022-031>034-043>046-280500-
   NORTHWEST IOWA

CITY           SKY/WX    TMP DP  RH WIND       PRES   REMARKS
CARROLL *      CLOUDY    54  48  82 NW8       29.86R
CHEROKEE *     CLEAR     52  44  74 NE6       29.88R
DENISON *      CLEAR     54  48  82 CALM      29.86R
LE MARS *      CLEAR     55  45  67 CALM      29.91R
ORANGE CITY *  CLEAR     57  39  51 N9        29.90R
SHELDON *      CLEAR     46  43  87 N6        29.89R
SIOUX CITY     CLEAR     54  48  80 NW3       29.89R
SPENCER        CLOUDY    57  40  52 N9        29.90R
STORM LAKE *   CLEAR     55  41  58 N8        29.88R
$$

IAZ055>058-069>071-079>083-090>094-280500-
   SOUTHWEST IOWA

CITY           SKY/WX    TMP DP  RH WIND       PRES   REMARKS
ATLANTIC *     CLEAR     54  48  82 CALM      29.86R
AUDUBON *      CLEAR     57  46  67 NW3       29.88R
CLARINDA *       N/A     52  52 100 MISG      29.88S
COUNCIL BLFS * CLEAR     64  48  55 W5        29.88R
CRESTON *      CLEAR     57  46  67 W6        29.86S
HARLAN  *      CLEAR     52  48  87 N5        29.90R
LAMONI         CLEAR     58  48  69 W8        29.85S
RED OAK *      PTCLDY    54  50  87 CALM      29.87S
SHENANDOAH *   CLEAR     54  52  94 CALM      29.87S
$$

IAZ047>049-059>061-072>074-084-280500-
   CENTRAL IOWA

CITY           SKY/WX    TMP DP  RH WIND       PRES   REMARKS
AMES           CLOUDY    59  44  57 N7        29.83R
ANKENY *         N/A    N/A N/A N/A MISG        N/A
BOONE *        CLOUDY    59  41  51 N8        29.83S
CHARITON *       N/A     57  48  72 W7        29.82F
DES MOINES     PTCLDY    62  48  60 NW3       29.82S
GRINNELL*      CLOUDY    60  41  49 N5        29.82S
KNOXVILLE *    CLOUDY    59  46  63 W6        29.81R
MARSHALLTOWN   CLOUDY    57  40  52 N7        29.82R
NEWTON *       PTCLDY    61  43  51 N8        29.82R
PELLA *        CLOUDY    61  49  64 NW7       29.82S
PERRY *          N/A     58  46  63 NW6       29.84S
$$

IAZ004>006-015-016-023>025-035-036-280500-
   NORTH CENTRAL IOWA

CITY           SKY/WX    TMP DP  RH WIND       PRES   REMARKS
ALGONA *       CLOUDY    55  43  62 NE13      29.88R
CLARION *      CLOUDY    57  39  51 N6        29.85S
ESTHERVILLE    CLOUDY    51  44  77 N9        29.90R
FORT DODGE *   CLOUDY    57  36  44 N6        29.87R
MASON CITY     CLOUDY    52  44  74 N10       29.88R
FOREST CITY *  CLOUDY    52  43  71 N12       29.87R
WEBSTER CITY * CLOUDY    59  37  44 N9        29.83R
IOWA FALLS *   CLOUDY    59  38  45 N6        29.85R
$$

IAZ007>011-017>019-026>030-037>042-050>054-066-280500-
   NORTHEAST IOWA

CITY           SKY/WX    TMP DP  RH WIND       PRES   REMARKS
CEDAR RAPIDS   CLOUDY    60  38  43 N9        29.80R
CHARLES CITY * CLOUDY    52  45  76 N10       29.85R
CLINTON *      CLOUDY    55  44  66 NW6       29.80
DECORAH *      CLOUDY    48  46  93 NW10      29.82S
DUBUQUE        CLOUDY    52  45  77 NE9       29.82R
MONTICELLO *   CLOUDY    55  43  62 NE7G15    29.80S
OELWEIN *      CLOUDY    54  45  71 N8        29.83S
WATERLOO       CLOUDY    56  42  59 N14       29.82R
$$

IAZ064-065-067-068-078-280500-
   EAST CENTRAL IOWA

CITY           SKY/WX    TMP DP  RH WIND       PRES   REMARKS
DAVENPORT      CLOUDY    55  45  68 N3        29.79R
IOWA CITY      CLOUDY    62  42  47 N6        29.81R
MT. PLEASANT * CLOUDY    62  49  62 SW6       29.78F
MUSCATINE *    PTCLDY    61  45  55 NW7       29.79R
QUAD CITIES    CLOUDY    58  47  66 SW5       29.77S
$$

IAZ062-063-075>077-085>089-095>099-280500-
   SOUTHEAST IOWA

CITY           SKY/WX    TMP DP  RH WIND       PRES   REMARKS
BURLINGTON     CLOUDY    62  46  55 W5        29.78S
FAIRFIELD *    CLOUDY    61  45  55 W6        29.79S
FORT MADISON * CLOUDY    63  46  55 SW3       29.79F
KEOKUK *       MOCLDY    61  50  67 W7        29.79F
OSKALOOSA *      N/A     57  47  68 NW5       29.81R
CENTERVILLE *    N/A     59  46  63 W7        29.84S
OTTUMWA        CLOUDY   N/A N/A N/A W8        29.80S
WASHINGTON *     N/A    N/A N/A N/A MISG        N/A
$$

ABBREVIATIONS USED IN REMARKS
   TC - TEMPERATURES IN CELSIUS
  WCI - WIND CHILL INDEX
   HX - HEAT INDEX
  VSB - VISIBILITY
$$





USA.gov is the U.S. government's official web portal to all federal, state and local government web resources and services.